User: anonymous   Login
Location: Unspecified
(0.0000°N, 0.0000°E)
Time: 17:25:48
(UTC+02:00)
Language:

Haruka - Orbit

View from above orbital plane
View from above orbital plane
View from above satellite
View from above satellite

Ground track
Ground track

The orbit data is extracted from the following two-line orbital elements,

1 24720U 97005A   18262.38476222 +.00000031 +00000-0 +24774-3 0  9990
2 24720 031.2949 288.1738 5993895 291.2948 266.7670 03.83010684301152
Epoch (UTC): 19 September 2018 09:14:03
Eccentricity: 0.5993895
inclination: 31.2949°
perigee height: 534 km
apogee height: 21220 km
right ascension of ascending node: 288.1738°
argument of perigee: 291.2948°
revolutions per day: 3.83010684
mean anomaly at epoch: 266.7670°
orbit number at epoch: 30115

The dashed part of the orbit path shows where the satellite is in the earth's shadow,  

DLR